Regional Weather Roundup
Issued by NWS Kansas City/Pleasant Hill, MO

Home | Current Version | Previous Version | Text Only | Print | Product List | Glossary On
Versions: 1 2 3 4 5 6 7 8 9 10 11 12 13 14 15 16 17 18 19 20 21 22 23 24 25 26 27 28 29 30 31 32 33 34 35 36 37 38 39 40 41 42 43 44 45 46 47 48 49 50
000
ASUS43 KEAX 211410
RWREAX

WEATHER ROUNDUP FOR EASTERN KANSAS AND NORTHWEST MISSOURI
NATIONAL WEATHER SERVICE KANSAS CITY/PLEASANT HILL MO
800 AM CST SAT JAN 21 2017

KSZ040-057-103>105-MOZ028-029-037-043-211500-
...KANSAS CITY METROPOLITAN AREA...

CITY           SKY/WX    TMP DP  RH WIND       PRES   REMARKS
K.C. INTL      FOG       41  39  93 SW6       29.48R VSB 1/8
K.C. DOWNTOWN  CLOUDY    41  41 100 S3        29.48S FOG
LEES SUMMIT    FOG       39  39 100 S9        29.51R VSB 1/4 WCI  33
OLATHE - IXD   FOG       39  38  96 S9        29.51R VSB 1/4 WCI  33
OLATHE - OJC   FOG       38  38 100 S6        29.50R VSB 1/4 WCI  33
LAWRENCE       FOG       39  39 100 SE3       29.49S VSB 1/4

$$

MOZ001>008-011>017-020>025-030>033-038>040-044>046-053-054-211500-
...NORTHERN AND CENTRAL MISSOURI...

CITY           SKY/WX    TMP DP  RH WIND       PRES   REMARKS
ST. JOSEPH     CLOUDY    41  41 100 W7        29.46S FOG
MOSBY          FOG       41  41 100 S5        29.50R VSB 1/4
WARRENSBURG    MOCLDY    41  37  87 S13       29.52R WCI  34
WHITEMAN AFB   MOCLDY    44  44 100 SW9       29.51R
CLINTON        CLEAR     39  36  87 SW5       29.54S
SEDALIA        CLEAR     45  38  76 SW13G20   29.52S
WARSAW         NOT AVBL
CHILLICOTHE      N/A     40  40 100 SE5       29.48R
KIRKSVILLE     CLEAR     40  38  93 SW10      29.46R WCI  33

$$

MOZ041-047>049-056>058-063>065-088>090-097-211500-
...EASTERN AND SOUTHERN MISSOURI...

CITY           SKY/WX    TMP DP  RH WIND       PRES   REMARKS
ST. LOUIS INTL MOCLDY    51  45  79 S6        29.55R
SPIRIT OF STL  CLEAR     52  45  77 SW5       29.53R
COLUMBIA       CLEAR     45  38  76 SW9       29.51R
JEFFERSON CITY CLEAR     48  38  68 CALM      29.53R
ROLLA          CLEAR     49  42  77 SW10      29.54R
OSAGE BEACH    CLEAR     46  38  73 CALM      29.55R
SPRINGFIELD    CLEAR     41  34  76 S5        29.56R
BRANSON        CLEAR     50  39  66 S6        29.58R
JOPLIN         CLEAR     41  35  79 S6        29.56R
WEST PLAINS    PTCLDY    43  42  97 CALM      29.60R

$$

IAZ060-094-KSZ022-034>040-054-083-096-NEZ052-066-093-211500-
...KANSAS...SOUTHEAST NEBRASKA AND IOWA...

CITY           SKY/WX    TMP DP  RH WIND       PRES   REMARKS
TOPEKA         FOG       29  26  89 N3        29.47F VSB 1/4
MANHATTAN      CLEAR     35  33  92 VRB3      29.45F
EMPORIA        CLEAR     30  30 100 S7        29.49R FOG     WCI  23
CHANUTE        CLEAR     36  34  92 S8        29.55R WCI  30
WICHITA        PTCLDY    30  29  96 SW5       29.53R WCI  25
OMAHA          CLOUDY    40  37  89 SW6       29.41R FOG
LINCOLN        PTCLDY    34  32  92 VRB3      29.44R
FALLS CITY     CLOUDY    41  40  96 SW6       29.44S
LAMONI         FOG       41  41 100 W9        29.42R VSB 1/4
DES MOINES     FOG       44  43  96 SW8       29.40S VSB 1/4

$$




USA.gov is the U.S. government's official web portal to all federal, state and local government web resources and services.